| time (UTC) | temp F | wind direction | speed MPH | gust MPH | rain 1hr in | rain 24hr in | rain mn in | humidity % | barometer mb |
| 20260505130205 | 76 | 0.0 | 0.0 | 0.00 | 0.00 | 0.00 | 16 | 1013.5 | |
| 20260505123954 | 76 | 0.0 | 0.0 | 0.00 | 0.00 | 0.00 | 26 | 1013.7 | |
| 20260505122847 | 77 | 0.0 | 0.0 | 0.00 | 0.00 | 0.00 | 19 | 1013.8 | |
| 20260505121739 | 77 | 0.0 | 0.0 | 0.00 | 0.00 | 0.00 | 18 | 1014.0 | |
| 20260505120633 | 77 | 0.0 | 0.0 | 0.00 | 0.00 | 0.00 | 19 | 1014.1 | |
| 20260505115526 | 78 | 0.0 | 0.0 | 0.00 | 0.00 | 0.00 | 19 | 1014.1 | |
| 20260505114418 | 80 | 0.0 | 0.0 | 0.00 | 0.00 | 0.00 | 12 | 1014.1 | |
| 20260505113311 | 81 | 0.0 | 0.0 | 0.00 | 0.00 | 0.00 | 13 | 1014.3 | |
| 20260505111100 | 81 | 0.0 | 0.0 | 0.00 | 0.00 | 0.00 | 17 | 1014.4 | |
| 20260505101525 | 75 | 0.0 | 0.0 | 0.00 | 0.00 | 0.00 | 5 | 1014.8 | |
| 20260505095314 | 73 | 0.0 | 0.0 | 0.00 | 0.00 | 0.00 | 5 | 1014.9 | |
| 20260505094207 | 73 | 0.0 | 0.0 | 0.00 | 0.00 | 0.00 | 5 | 1015.1 | |
| 20260505091957 | 72 | 0.0 | 0.0 | 0.00 | 0.00 | 0.00 | 5 | 1015.1 | |
| 20260505090850 | 71 | 0.0 | 0.0 | 0.00 | 0.00 | 0.00 | 5 | 1015.2 | |
| 20260505085742 | 71 | 0.0 | 0.0 | 0.00 | 0.00 | 0.00 | 5 | 1015.2 | |
| 20260505084635 | 70 | 0.0 | 0.0 | 0.00 | 0.00 | 0.00 | 5 | 1015.3 | |
| 20260505083528 | 70 | 0.0 | 0.0 | 0.00 | 0.00 | 0.00 | 5 | 1015.5 | |
| 20260505082420 | 70 | 0.0 | 0.0 | 0.00 | 0.00 | 0.00 | 5 | 1015.5 | |
| 20260505081313 | 69 | 0.0 | 0.0 | 0.00 | 0.00 | 0.00 | 5 | 1015.6 | |
| 20260505080206 | 68 | 0.0 | 0.0 | 0.00 | 0.00 | 0.00 | 5 | 1015.6 | |
| 20260505075058 | 67 | 0.0 | 0.0 | 0.00 | 0.00 | 0.00 | 5 | 1015.6 | |
| 20260505073951 | 67 | 0.0 | 0.0 | 0.00 | 0.00 | 0.00 | 5 | 1015.6 | |
| 20260505072844 | 66 | 0.0 | 0.0 | 0.00 | 0.00 | 0.00 | 5 | 1015.7 | |
| 20260505071737 | 66 | 0.0 | 0.0 | 0.00 | 0.00 | 0.00 | 5 | 1015.6 | |
| 20260505070630 | 65 | 0.0 | 0.0 | 0.00 | 0.00 | 0.00 | 5 | 1015.6 | |
| 20260505065523 | 64 | 0.0 | 0.0 | 0.00 | 0.00 | 0.00 | 5 | 1015.6 | |
| 20260505064416 | 63 | 0.0 | 0.0 | 0.00 | 0.00 | 0.00 | 5 | 1015.6 | |
| 20260505063309 | 62 | 0.0 | 0.0 | 0.00 | 0.00 | 0.00 | 5 | 1015.5 | |
| 20260505062159 | 61 | 0.0 | 0.0 | 0.00 | 0.00 | 0.00 | 5 | 1015.5 | |
| 20260505055948 | 59 | 0.0 | 0.0 | 0.00 | 0.00 | 0.00 | 5 | 1015.6 | |
| 20260505053738 | 57 | 0.0 | 0.0 | 0.00 | 0.00 | 0.00 | 5 | 1015.6 | |
| 20260505052631 | 56 | 0.0 | 0.0 | 0.00 | 0.00 | 0.00 | 5 | 1015.6 | |
| 20260505051524 | 55 | 0.0 | 0.0 | 0.00 | 0.00 | 0.00 | 5 | 1015.6 | |
| 20260505050417 | 54 | 0.0 | 0.0 | 0.00 | 0.00 | 0.00 | 5 | 1015.6 | |
| 20260505040837 | 50 | 0.0 | 0.0 | 0.00 | 0.00 | 0.00 | 1015.5 | ||
| 20260505035730 | 50 | 0.0 | 0.0 | 0.00 | 0.00 | 0.00 | 1015.4 | ||
| 20260505032415 | 50 | 0.0 | 0.0 | 0.00 | 0.00 | 0.00 | 1015.4 | ||
| 20260505031309 | 49 | 0.0 | 0.0 | 0.00 | 0.00 | 0.00 | 1015.3 | ||
| 20260505025058 | 49 | 0.0 | 0.0 | 0.00 | 0.00 | 0.00 | 1015.2 | ||
| 20260505023950 | 49 | 0.0 | 0.0 | 0.00 | 0.00 | 0.00 | 1015.2 | ||
| 20260505022842 | 50 | 0.0 | 0.0 | 0.00 | 0.00 | 0.00 | 1015.3 | ||
| 20260505020632 | 50 | 0.0 | 0.0 | 0.00 | 0.00 | 0.00 | 1015.2 | ||
| 20260505013317 | 51 | 0.0 | 0.0 | 0.00 | 0.00 | 0.00 | 1015.3 | ||
| 20260505012211 | 51 | 0.0 | 0.0 | 0.00 | 0.00 | 0.00 | 1015.2 | ||
| 20260505011104 | 51 | 0.0 | 0.0 | 0.00 | 0.00 | 0.00 | 1015.3 | ||
| 20260505005957 | 52 | 0.0 | 0.0 | 0.00 | 0.00 | 0.00 | 1015.3 | ||
| 20260505004850 | 52 | 0.0 | 0.0 | 0.00 | 0.00 | 0.00 | 1015.2 | ||
| 20260505003742 | 53 | 0.0 | 0.0 | 0.00 | 0.00 | 0.00 | 1015.0 | ||
| 20260505001531 | 53 | 0.0 | 0.0 | 0.00 | 0.00 | 0.00 | 5 | 1015.0 | |
| 20260505000425 | 53 | 0.0 | 0.0 | 0.00 | 0.00 | 0.00 | 5 | 1014.9 | |
| 20260504235318 | 53 | 0.0 | 0.0 | 0.00 | 0.00 | 0.00 | 5 | 1014.9 | |
| 20260504234210 | 53 | 0.0 | 0.0 | 0.00 | 0.00 | 0.00 | 5 | 1014.9 | |
| 20260504233104 | 54 | 0.0 | 0.0 | 0.00 | 0.00 | 0.00 | 5 | 1014.9 | |
| 20260504231956 | 54 | 0.0 | 0.0 | 0.00 | 0.00 | 0.00 | 5 | 1015.0 | |
| 20260504224642 | 53 | 0.0 | 0.0 | 0.00 | 0.00 | 0.00 | 5 | 1015.0 | |
| 20260504223535 | 54 | 0.0 | 0.0 | 0.00 | 0.00 | 0.00 | 5 | 1015.1 | |
| 20260504222428 | 54 | 0.0 | 0.0 | 0.00 | 0.00 | 0.00 | 5 | 1015.1 | |
| 20260504221321 | 54 | 0.0 | 0.0 | 0.00 | 0.00 | 0.00 | 5 | 1015.1 | |
| 20260504220214 | 55 | 0.0 | 0.0 | 0.00 | 0.00 | 0.00 | 5 | 1015.2 | |
| 20260504215107 | 55 | 0.0 | 0.0 | 0.00 | 0.00 | 0.00 | 5 | 1015.2 | |
| 20260504214000 | 55 | 0.0 | 0.0 | 0.00 | 0.00 | 0.00 | 5 | 1015.2 | |
| 20260504210646 | 55 | 0.0 | 0.0 | 0.00 | 0.00 | 0.00 | 5 | 1015.2 | |
| 20260504204435 | 56 | 0.0 | 0.0 | 0.00 | 0.00 | 0.00 | 5 | 1014.9 | |
| 20260504203328 | 56 | 0.0 | 0.0 | 0.00 | 0.00 | 0.00 | 5 | 1015.0 | |
| 20260504202221 | 56 | 0.0 | 0.0 | 0.00 | 0.00 | 0.00 | 5 | 1015.0 | |
| 20260504201114 | 57 | 0.0 | 0.0 | 0.00 | 0.00 | 0.00 | 5 | 1015.0 | |
| 20260504200007 | 57 | 0.0 | 0.0 | 0.00 | 0.00 | 0.00 | 5 | 1015.0 | |
| 20260504194900 | 57 | 0.0 | 0.0 | 0.00 | 0.00 | 0.00 | 5 | 1014.8 | |
| 20260504193753 | 58 | 0.0 | 0.0 | 0.00 | 0.00 | 0.00 | 5 | 1014.8 | |
| 20260504191542 | 58 | 0.0 | 0.0 | 0.00 | 0.00 | 0.00 | 5 | 1015.0 | |
| 20260504190435 | 59 | 0.0 | 0.0 | 0.00 | 0.00 | 0.00 | 5 | 1015.0 | |
| 20260504185328 | 59 | 0.0 | 0.0 | 0.00 | 0.00 | 0.00 | 5 | 1015.0 | |
| 20260504184220 | 60 | 0.0 | 0.0 | 0.00 | 0.00 | 0.00 | 5 | 1015.0 | |
| 20260504183113 | 60 | 0.0 | 0.0 | 0.00 | 0.00 | 0.00 | 5 | 1014.9 | |
| 20260504182006 | 61 | 0.0 | 0.0 | 0.00 | 0.00 | 0.00 | 5 | 1014.8 | |
| 20260504180859 | 61 | 0.0 | 0.0 | 0.00 | 0.00 | 0.00 | 5 | 1014.7 | |
| 20260504175752 | 62 | 0.0 | 0.0 | 0.00 | 0.00 | 0.00 | 5 | 1014.7 | |
| 20260504173542 | 63 | 0.0 | 0.0 | 0.00 | 0.00 | 0.00 | 5 | 1014.4 | |
| 20260504172435 | 64 | 0.0 | 0.0 | 0.00 | 0.00 | 0.00 | 5 | 1014.5 | |
| 20260504171328 | 64 | 0.0 | 0.0 | 0.00 | 0.00 | 0.00 | 5 | 1014.6 | |
| 20260504170221 | 65 | 0.0 | 0.0 | 0.00 | 0.00 | 0.00 | 5 | 1014.4 | |
| 20260504140442 | 70 | 0.0 | 0.0 | 0.00 | 0.00 | 0.00 | 24 | 1014.4 |